Location: Daytona Beach
(29.2106°N, 81.0231°W)
Time: 17:34:44
(UTC-04:00)

RS-15 - Pass Details

Date: 03 October 2021
Orbit: 1884 x 2160 km, 64.8° (Epoch: 26 October)

Event Time Altitude Azimuth Distance (km) Brightness Sun altitude
Rises 01:19:51 0° 329° (NNW) 5,661 10.7 -64.8°
Reaches altitude 10° 01:23:19 10° 327° (NNW) 4,669 10.2 -64.7°
Enters shadow 01:25:29 18° 325° (NW) 4,068 9.8 -64.7°
